FW7441 Weather Reports


Display with metric or nautical units.
time (UTC)temp
F
wind
direction
speed
MPH
gust
MPH
rain 1hr
in
rain 24hr
in
rain mn
in
humidity
%
barometer
mb
20260903124602 80 223 0.0 1.0 0.00 0.00 0.00 85 1013.6
20260903124102 80 238 3.0 5.0 0.00 0.00 0.00 86 1013.8
20260903123601 80 248 1.0 1.0 0.00 0.00 0.00 86 1013.9
20260903123101 79 225 2.0 2.0 0.00 0.00 0.00 88 1013.9
20260903122601 79 149 1.0 1.0 0.00 0.00 0.00 89 1013.9
20260903122055 78 195 1.0 2.0 0.00 0.00 0.00 89 1013.9
20260903121549 78 177 1.0 1.0 0.00 0.00 0.00 90 1013.9
20260903121045 78 212 0.0 1.0 0.00 0.00 0.00 91 1013.8
20260903120543 77 191 0.0 0.0 0.00 0.00 0.00 91 1013.8
20260903120038 77 201 0.0 0.0 0.00 0.00 0.00 92 1013.9
20260903115537 77 214 1.0 2.0 0.00 0.00 0.00 92 1013.7
20260903115032 77 201 0.0 0.0 0.00 0.00 0.00 93 1013.7
20260903114527 77 203 0.0 1.0 0.00 0.00 0.00 93 1013.9
20260903114023 77 167 1.0 2.0 0.00 0.00 0.00 93 1013.7
20260903113518 77 220 0.0 1.0 0.00 0.00 0.00 93 1013.8
20260903113014 77 222 0.0 0.0 0.00 0.00 0.00 93 1013.8
20260903112510 77 196 2.0 2.0 0.00 0.00 0.00 93 1013.8
20260903112009 77 220 0.0 0.0 0.00 0.00 0.00 92 1013.8
20260903111503 77 193 0.0 1.0 0.00 0.00 0.00 93 1013.8
20260903110959 77 201 0.0 1.0 0.00 0.00 0.00 93 1013.6
20260903110455 77 232 1.0 1.0 0.00 0.00 0.00 92 1013.7
20260903105949 77 215 1.0 1.0 0.00 0.00 0.00 92 1013.6
20260903105445 77 178 3.0 5.0 0.00 0.00 0.00 93 1013.9
20260903104944 77 181 1.0 1.0 0.00 0.00 0.00 94 1013.9
20260903104443 77 190 1.0 1.0 0.00 0.00 0.00 94 1013.5
20260903103940 77 202 0.0 0.0 0.00 0.00 0.00 95 1013.6
20260903103436 77 230 0.0 1.0 0.00 0.00 0.00 95 1013.5
20260903102931 77 200 0.0 0.0 0.00 0.00 0.00 95 1013.7
20260903102427 77 191 0.0 0.0 0.00 0.00 0.00 95 1013.7
20260903101925 77 169 1.0 1.0 0.00 0.00 0.00 96 1013.7
20260903101420 77 202 0.0 0.0 0.00 0.00 0.00 96 1013.6
20260903100915 77 202 0.0 0.0 0.00 0.00 0.00 95 1013.5
20260903100411 77 202 0.0 0.0 0.00 0.00 0.00 95 1013.6
20260903095907 77 203 0.0 0.0 0.00 0.00 0.00 95 1013.8
20260903095356 77 210 0.0 1.0 0.00 0.00 0.00 95 1013.9
20260903094852 77 232 0.0 0.0 0.00 0.00 0.00 95 1013.7
20260903094351 76 232 0.0 0.0 0.00 0.00 0.00 96 1013.9
20260903093847 76 233 0.0 0.0 0.00 0.00 0.00 96 1013.7
20260903093342 76 233 0.0 0.0 0.00 0.00 0.00 96 1013.7
20260903092838 77 233 0.0 0.0 0.00 0.00 0.00 96 1013.7
20260903092332 77 233 0.0 0.0 0.00 0.00 0.00 95 1013.4
20260903091831 77 233 0.0 0.0 0.00 0.00 0.00 95 1013.7
20260903091325 77 233 0.0 0.0 0.00 0.00 0.00 95 1013.5
20260903090820 77 233 0.0 0.0 0.00 0.00 0.00 95 1013.6
20260903090321 77 232 0.0 0.0 0.00 0.00 0.00 94 1013.6
20260903085819 78 232 0.0 0.0 0.00 0.00 0.00 94 1013.8
20260903085313 78 232 0.0 0.0 0.00 0.00 0.00 94 1013.6
20260903084812 78 232 0.0 0.0 0.00 0.00 0.00 94 1013.8
20260903084306 78 229 0.0 0.0 0.00 0.00 0.00 93 1013.6
20260903083801 78 229 0.0 0.0 0.00 0.00 0.00 93 1013.8
20260903083302 78 222 0.0 0.0 0.00 0.00 0.00 92 1013.8
20260903082800 79 222 0.0 0.0 0.00 0.00 0.00 92 1013.7
20260903082256 79 228 0.0 0.0 0.00 0.00 0.00 92 1014.0
20260903081751 79 272 0.0 1.0 0.00 0.00 0.00 92 1013.8
20260903081247 79 269 0.0 0.0 0.00 0.00 0.00 91 1013.8
20260903080743 79 248 0.0 0.0 0.00 0.00 0.00 91 1013.5
20260903080240 79 219 0.0 0.0 0.00 0.00 0.00 91 1013.3
20260903075739 79 219 0.0 0.0 0.00 0.00 0.00 91 1013.5
20260903075235 79 176 1.0 2.0 0.00 0.00 0.00 91 1013.3
20260903074733 79 157 0.0 1.0 0.00 0.00 0.00 92 1013.7
20260903074231 78 185 0.0 0.0 0.00 0.00 0.00 92 1013.7
20260903073724 78 219 0.0 0.0 0.00 0.00 0.00 92 1013.4
20260903073219 78 190 0.0 0.0 0.00 0.00 0.00 93 1013.5
20260903072715 78 190 0.0 0.0 0.00 0.00 0.00 93 1013.8
20260903072212 78 190 0.0 0.0 0.00 0.00 0.00 93 1013.4
20260903071707 78 192 0.0 0.0 0.00 0.00 0.00 94 1013.6
20260903071203 78 192 0.0 0.0 0.00 0.00 0.00 94 1013.5
20260903070703 78 192 0.0 0.0 0.00 0.00 0.00 93 1013.8
20260903070158 78 192 0.0 0.0 0.00 0.00 0.00 93 1013.5
20260903065653 79 192 0.0 0.0 0.00 0.00 0.00 93 1013.5
20260903065147 79 192 0.0 0.0 0.00 0.00 0.00 93 1013.7
20260903064646 79 193 0.0 0.0 0.00 0.00 0.00 92 1013.5
20260903064142 79 193 0.0 0.0 0.00 0.00 0.00 92 1013.8
20260903063637 79 195 0.0 0.0 0.00 0.00 0.00 92 1013.8
20260903063132 79 216 0.0 0.0 0.00 0.00 0.00 92 1013.7
20260903062628 79 206 0.0 0.0 0.00 0.00 0.00 92 1013.7
20260903062123 79 185 0.0 0.0 0.00 0.00 0.00 92 1013.8
20260903061618 80 185 0.0 0.0 0.00 0.00 0.00 92 1013.8
20260903061117 80 235 0.0 0.0 0.00 0.00 0.00 92 1013.8
20260903060613 80 197 0.0 0.0 0.00 0.00 0.00 92 1014.0
20260903060108 80 217 0.0 0.0 0.00 0.00 0.00 92 1013.9
20260903055606 80 216 0.0 0.0 0.00 0.00 0.00 92 1014.0
20260903055104 80 233 1.0 1.0 0.00 0.00 0.00 92 1013.9
20260903054559 80 218 0.0 0.0 0.00 0.00 0.00 92 1013.8
20260903054055 80 194 0.0 0.0 0.00 0.00 0.00 92 1013.8
20260903053550 80 250 0.0 1.0 0.00 0.00 0.00 92 1013.9
20260903053046 80 226 1.0 2.0 0.00 0.00 0.00 92 1013.9
20260903052542 80 226 0.0 0.0 0.00 0.00 0.00 92 1013.8
20260903052037 80 225 0.0 1.0 0.00 0.00 0.00 92 1013.7
20260903051537 80 233 1.0 1.0 0.00 0.00 0.00 92 1013.8
20260903051033 80 207 0.0 0.0 0.00 0.00 0.00 92 1013.7
20260903050531 80 244 2.0 2.0 0.00 0.00 0.00 92 1013.8
20260903050027 80 204 0.0 0.0 0.00 0.00 0.00 92 1013.7
20260903045527 80 184 0.0 0.0 0.00 0.00 0.00 92 1013.6
20260903045024 80 198 0.0 1.0 0.00 0.00 0.00 92 1013.5
20260903044519 80 206 0.0 0.0 0.00 0.00 0.00 92 1013.5
20260903044015 80 242 0.0 0.0 0.00 0.00 0.00 92 1013.6
20260903043510 80 211 0.0 0.0 0.00 0.00 0.00 92 1013.4
20260903043009 80 221 0.0 0.0 0.00 0.00 0.00 91 1013.5
20260903042504 80 194 0.0 1.0 0.00 0.00 0.00 91 1013.3
20260903042000 80 208 0.0 0.0 0.00 0.00 0.00 91 1013.3
20260903041456 80 195 1.0 1.0 0.00 0.00 0.00 92 1013.3
20260903040952 80 213 1.0 1.0 0.00 0.00 0.00 92 1013.3
20260903040450 80 207 0.0 0.0 0.00 0.00 0.00 92 1013.5
20260903035947 81 195 0.0 1.0 0.00 0.00 0.00 91 1013.6
20260903035442 81 243 1.0 1.0 0.00 0.00 0.00 91 1013.6
20260903034937 81 209 0.0 0.0 0.00 0.00 0.00 90 1013.5
20260903034432 81 215 0.0 0.0 0.00 0.00 0.00 90 1013.6
20260903033927 81 183 1.0 2.0 0.00 0.00 0.00 91 1013.4
20260903033422 81 193 0.0 0.0 0.00 0.00 0.00 91 1013.7
20260903032917 81 214 0.0 0.0 0.00 0.00 0.00 91 1013.7
20260903032413 81 26 0.0 0.0 0.00 0.00 0.00 90 1013.7
20260903031908 81 246 0.0 1.0 0.00 0.00 0.00 91 1013.6
20260903031407 81 211 0.0 0.0 0.00 0.00 0.00 90 1013.6
20260903030903 81 232 0.0 0.0 0.00 0.00 0.00 90 1013.4
20260903030359 81 262 0.0 0.0 0.00 0.00 0.00 90 1013.5
20260903025854 81 192 0.0 0.0 0.00 0.00 0.00 89 1013.6
20260903025350 82 212 0.0 0.0 0.00 0.00 0.00 89 1013.4
20260903024850 82 235 0.0 0.0 0.00 0.00 0.00 88 1013.5
20260903024344 82 199 0.0 0.0 0.00 0.00 0.00 87 1013.5
20260903023839 82 191 0.0 0.0 0.00 0.00 0.00 87 1013.6
20260903023335 82 229 1.0 1.0 0.00 0.00 0.00 87 1013.5
20260903022830 82 211 0.0 1.0 0.00 0.00 0.00 87 1013.6
20260903022329 82 203 1.0 1.0 0.00 0.00 0.00 87 1013.3
20260903021822 82 267 1.0 1.0 0.00 0.00 0.00 87 1013.4
20260903021319 81 205 0.0 1.0 0.00 0.00 0.00 89 1013.3
20260903020818 81 252 0.0 0.0 0.00 0.00 0.00 89 1013.5
20260903020313 81 205 0.0 0.0 0.00 0.00 0.00 89 1013.5
20260903015808 81 210 0.0 0.0 0.00 0.00 0.00 90 1013.4
20260903015305 81 210 0.0 0.0 0.00 0.00 0.00 90 1013.4
20260903014759 81 210 0.0 0.0 0.00 0.00 0.00 89 1013.3
20260903014258 81 210 0.0 0.0 0.00 0.00 0.00 89 1013.2
20260903013753 81 210 0.0 0.0 0.00 0.00 0.00 88 1013.1
20260903013252 82 210 0.0 0.0 0.00 0.00 0.00 88 1013.3
20260903012751 82 209 0.0 0.0 0.00 0.00 0.00 87 1013.1
20260903012246 82 209 0.0 0.0 0.00 0.00 0.00 87 1013.1
20260903011745 82 208 0.0 0.0 0.00 0.00 0.00 87 1013.0
20260903011244 82 208 0.0 0.0 0.00 0.00 0.00 86 1013.0
20260903010740 83 208 0.0 0.0 0.00 0.00 0.00 85 1013.0
20260903010235 83 207 0.0 0.0 0.00 0.00 0.00 84 1013.0
20260903005734 84 207 0.0 1.0 0.00 0.00 0.00 83 1012.6
20260903005229 84 205 0.0 0.0 0.00 0.00 0.00 83 1012.6
20260903004725 83 235 0.0 0.0 0.00 0.00 0.00 83 1012.5
20260903004220 83 235 0.0 0.0 0.00 0.00 0.00 83 1012.8
20260903003715 83 235 0.0 0.0 0.00 0.00 0.00 83 1012.6
20260903003211 84 235 0.0 0.0 0.00 0.00 0.00 83 1012.6
20260903002706 84 235 0.0 0.0 0.00 0.00 0.00 82 1012.6
20260903002159 85 235 0.0 0.0 0.00 0.00 0.00 81 1012.5
20260903001655 85 235 0.0 0.0 0.00 0.00 0.00 80 1012.8
20260903001149 86 235 0.0 0.0 0.00 0.00 0.00 79 1012.4
20260903000644 86 249 0.0 1.0 0.00 0.00 0.00 78 1012.5
20260903000144 86 220 0.0 0.0 0.00 0.00 0.00 77 1012.6
20260902235643 87 221 0.0 0.0 0.00 0.00 0.00 76 1012.6
20260902235138 87 220 0.0 0.0 0.00 0.00 0.00 76 1012.4
20260902234638 88 209 0.0 0.0 0.00 0.00 0.00 75 1012.4
20260902234136 88 207 2.0 3.0 0.00 0.00 0.00 73 1012.3
20260902233632 88 209 1.0 2.0 0.00 0.00 0.00 72 1012.3
20260902233125 88 243 3.0 5.0 0.00 0.00 0.00 72 1012.5
20260902232620 89 207 0.0 1.0 0.00 0.00 0.00 72 1012.4
20260902232119 89 178 2.0 2.0 0.00 0.00 0.00 70 1012.5
20260902231618 90 208 1.0 2.0 0.00 0.00 0.00 70 1012.4
20260902231113 90 209 1.0 2.0 0.00 0.00 0.00 69 1012.3
20260902230609 90 231 3.0 5.0 0.00 0.00 0.00 68 1012.2
20260902230107 90 202 2.0 3.0 0.00 0.00 0.00 68 1012.4
20260902225602 90 237 0.0 1.0 0.00 0.00 0.00 69 1012.3
20260902225102 90 207 1.0 2.0 0.00 0.00 0.00 67 1012.3
20260902224601 91 227 1.0 1.0 0.00 0.00 0.00 68 1012.4
20260902224056 91 205 0.0 0.0 0.00 0.00 0.00 67 1012.5
20260902223553 90 186 1.0 1.0 0.00 0.00 0.00 67 1012.5
20260902223052 91 143 1.0 2.0 0.00 0.00 0.00 66 1012.6
20260902222550 91 202 2.0 2.0 0.00 0.00 0.00 65 1012.6
20260902222049 91 237 2.0 2.0 0.00 0.00 0.00 66 1012.8
20260902221544 91 169 2.0 3.0 0.00 0.00 0.00 64 1012.5
20260902221039 92 221 0.0 2.0 0.00 0.00 0.00 64 1012.6
20260902220534 93 298 0.0 1.0 0.00 0.00 0.00 62 1012.8
20260902220029 93 202 0.0 0.0 0.00 0.00 0.00 60 1012.6
20260902215525 92 253 1.0 1.0 0.00 0.00 0.00 61 1012.5
20260902215020 92 231 1.0 1.0 0.00 0.00 0.00 60 1012.6
20260902214520 92 288 3.0 3.0 0.00 0.00 0.00 58 1012.5
20260902214019 93 257 3.0 3.0 0.00 0.00 0.00 58 1012.8
20260902213515 93 270 2.0 2.0 0.00 0.00 0.00 58 1012.9
20260902213014 94 217 1.0 2.0 0.00 0.00 0.00 58 1012.5
20260902212510 94 242 2.0 3.0 0.00 0.00 0.00 61 1012.6
20260902212006 92 222 2.0 2.0 0.00 0.00 0.00 61 1012.8
20260902211502 92 268 1.0 1.0 0.00 0.00 0.00 62 1012.8
20260902210956 93 350 3.0 5.0 0.00 0.00 0.00 60 1013.0
20260902210457 95 252 7.0 14.0 0.00 0.00 0.00 57 1012.8
20260902205955 95 235 2.0 3.0 0.00 0.00 0.00 60 1012.8
20260902205450 95 128 2.0 3.0 0.00 0.00 0.00 60 1012.9
20260902204946 94 249 0.0 0.0 0.00 0.00 0.00 60 1012.8
20260902204445 94 215 2.0 3.0 0.00 0.00 0.00 60 1012.9
20260902203941 95 219 2.0 2.0 0.00 0.00 0.00 59 1012.8
20260902203436 95 213 5.0 7.0 0.00 0.00 0.00 59 1012.5
20260902202935 96 262 1.0 1.0 0.00 0.00 0.00 57 1012.8
20260902202431 96 267 4.0 6.0 0.00 0.00 0.00 57 1013.0
20260902201928 95 208 3.0 3.0 0.00 0.00 0.00 56 1012.9
20260902201423 94 236 2.0 2.0 0.00 0.00 0.00 62 1012.8
20260902200923 93 180 2.0 2.0 0.00 0.00 0.00 61 1013.0
20260902200418 94 345 1.0 1.0 0.00 0.00 0.00 60 1013.2
20260902195913 94 222 1.0 2.0 0.00 0.00 0.00 62 1013.1
20260902195408 94 300 3.0 6.0 0.00 0.00 0.00 62 1013.1
20260902194903 95 217 1.0 1.0 0.00 0.00 0.00 62 1013.2
20260902194402 94 240 3.0 5.0 0.00 0.00 0.00 62 1013.0
20260902193857 95 206 2.0 3.0 0.00 0.00 0.00 59 1013.0
20260902193354 95 296 2.0 2.0 0.00 0.00 0.00 61 1013.2
20260902192852 94 252 1.0 1.0 0.00 0.00 0.00 63 1013.1
20260902192351 95 177 1.0 2.0 0.00 0.00 0.00 62 1013.2
20260902191845 95 255 1.0 1.0 0.00 0.00 0.00 59 1013.3
20260902191341 93 242 0.0 1.0 0.00 0.00 0.00 63 1013.4
20260902190836 93 270 2.0 3.0 0.00 0.00 0.00 60 1013.5
20260902190335 94 168 3.0 5.0 0.00 0.00 0.00 57 1013.4
20260902185832 94 227 1.0 1.0 0.00 0.00 0.00 60 1013.5
20260902185326 94 271 2.0 3.0 0.00 0.00 0.00 62 1013.4
20260902184822 95 214 2.0 2.0 0.00 0.00 0.00 63 1013.5
20260902184318 94 100 3.0 5.0 0.00 0.00 0.00 61 1013.6
20260902183813 94 255 3.0 5.0 0.00 0.00 0.00 61 1013.7
20260902183309 94 222 2.0 3.0 0.00 0.00 0.00 59 1013.9
20260902182805 94 196 5.0 6.0 0.00 0.00 0.00 60 1013.7
20260902182305 93 152 1.0 1.0 0.00 0.00 0.00 64 1013.8
20260902181757 93 221 3.0 3.0 0.00 0.00 0.00 65 1013.6
20260902181252 94 114 1.0 1.0 0.00 0.00 0.00 63 1013.8
20260902180746 93 185 2.0 2.0 0.00 0.00 0.00 63 1013.7
20260902180242 93 145 1.0 2.0 0.00 0.00 0.00 62 1013.8
20260902175737 93 227 5.0 8.0 0.00 0.00 0.00 63 1013.7
20260902175233 93 168 1.0 2.0 0.00 0.00 0.00 63 1013.8
20260902174728 92 225 1.0 2.0 0.00 0.00 0.00 64 1014.0
20260902174224 92 232 1.0 1.0 0.00 0.00 0.00 63 1013.8
20260902173720 94 134 1.0 1.0 0.00 0.00 0.00 63 1013.8
20260902173220 93 187 1.0 1.0 0.00 0.00 0.00 64 1013.8
20260902172714 92 177 1.0 2.0 0.00 0.00 0.00 64 1013.9
20260902172214 92 97 2.0 2.0 0.00 0.00 0.00 63 1014.0
20260902171709 92 228 2.0 2.0 0.00 0.00 0.00 65 1013.9
20260902171205 92 223 4.0 6.0 0.00 0.00 0.00 63 1014.1
20260902170701 92 166 0.0 2.0 0.00 0.00 0.00 66 1014.0
20260902170155 92 216 2.0 3.0 0.00 0.00 0.00 65 1013.9
20260902165650 91 229 3.0 6.0 0.00 0.00 0.00 64 1014.1
20260902165144 91 199 2.0 3.0 0.00 0.00 0.00 67 1014.4
20260902164640 91 209 1.0 1.0 0.00 0.00 0.00 66 1014.1
20260902164138 91 227 1.0 1.0 0.00 0.00 0.00 67 1014.3
20260902163634 91 156 3.0 3.0 0.00 0.00 0.00 66 1014.1
20260902163133 90 226 1.0 1.0 0.00 0.00 0.00 68 1014.5
20260902162632 90 229 2.0 2.0 0.00 0.00 0.00 67 1014.4
20260902162126 90 192 2.0 2.0 0.00 0.00 0.00 67 1014.4
20260902161622 89 197 1.0 2.0 0.00 0.00 0.00 72 1014.4
20260902161118 89 231 1.0 2.0 0.00 0.00 0.00 68 1014.4
20260902160614 90 235 1.0 1.0 0.00 0.00 0.00 69 1014.4
20260902160109 89 134 1.0 1.0 0.00 0.00 0.00 71 1014.6
20260902155607 88 220 1.0 2.0 0.00 0.00 0.00 69 1014.4
20260902155106 88 233 1.0 1.0 0.00 0.00 0.00 69 1014.8
20260902154602 89 174 1.0 2.0 0.00 0.00 0.00 69 1014.5
20260902154056 88 210 0.0 1.0 0.00 0.00 0.00 72 1014.5
20260902153554 88 179 0.0 0.0 0.00 0.00 0.00 71 1014.7
20260902153050 87 135 1.0 2.0 0.00 0.00 0.00 75 1014.7
20260902152547 87 235 1.0 1.0 0.00 0.00 0.00 73 1014.5
20260902152042 87 175 1.0 1.0 0.00 0.00 0.00 72 1014.3
20260902151538 87 196 1.0 1.0 0.00 0.00 0.00 73 1014.6
20260902151037 86 215 1.0 1.0 0.00 0.00 0.00 73 1014.7
20260902150532 86 165 1.0 1.0 0.00 0.00 0.00 72 1014.4
20260902150027 86 133 0.0 1.0 0.00 0.00 0.00 74 1014.6
20260902145517 84 254 2.0 2.0 0.00 0.00 0.00 75 1015.0
20260902145017 85 233 1.0 2.0 0.00 0.00 0.00 74 1014.7
20260902144514 86 215 0.0 1.0 0.00 0.00 0.00 75 1014.9
20260902144013 85 208 1.0 1.0 0.00 0.00 0.00 76 1014.9
20260902143509 84 272 2.0 2.0 0.00 0.00 0.00 76 1015.0
20260902143004 84 251 0.0 1.0 0.00 0.00 0.00 77 1014.9
20260902142500 83 33 1.0 1.0 0.00 0.00 0.00 77 1015.0
20260902141955 82 138 0.0 0.0 0.00 0.00 0.00 79 1014.6
20260902141449 82 219 1.0 1.0 0.00 0.00 0.00 80 1014.9
20260902140943 80 219 1.0 2.0 0.00 0.00 0.00 81 1014.9
20260902140439 80 228 0.0 0.0 0.00 0.00 0.00 84 1015.1
20260902135938 81 223 2.0 2.0 0.00 0.00 0.00 82 1015.0
20260902135435 81 233 0.0 0.0 0.00 0.00 0.00 82 1015.0
20260902134933 81 156 0.0 0.0 0.00 0.00 0.00 82 1015.1
20260902134430 81 203 0.0 0.0 0.00 0.00 0.00 81 1015.2
20260902133924 82 274 1.0 1.0 0.00 0.00 0.00 80 1015.3
20260902133419 82 303 1.0 2.0 0.00 0.00 0.00 79 1015.5
20260902132914 80 320 0.0 0.0 0.00 0.00 0.00 82 1015.0
20260902132409 80 256 1.0 2.0 0.00 0.00 0.00 81 1015.1
20260902131904 79 300 0.0 0.0 0.00 0.00 0.00 83 1015.2
20260902131401 79 180 3.0 3.0 0.00 0.00 0.00 82 1014.9
20260902130900 79 123 1.0 2.0 0.00 0.00 0.00 83 1015.9
20260902130356 79 258 0.0 0.0 0.00 0.00 0.00 83 1015.2
20260902125850 79 233 3.0 3.0 0.00 0.00 0.00 82 1015.0
20260902125347 80 266 1.0 1.0 0.00 0.00 0.00 82 1015.5